Location: Unspecified
(0.0000°N, 0.0000°E)
Time: 02:46:44
(UTC+02:00)

H-2A R/B - Visible Passes

Search period start: 23 July 2017 00:00
Search period end: 02 August 2017 00:00
Orbit: 264 x 33077 km, 28.4° (Epoch: 21 July)

Date Brightness Start Highest point End Pass type
(mag) Time Alt. Az. Time Alt. Az. Time Alt. Az.
24 Jul 5.9 04:35:28 31° S 04:45:24 36° SE 13:18:48 10° NE visible
26 Jul 5.9 04:57:47 33° S 05:12:03 44° SE 13:44:54 10° NE visible
28 Jul 5.9 05:20:04 32° SSW 05:39:26 53° SE 14:10:25 10° ENE visible
30 Jul 5.9 05:42:18 30° SSW 06:08:03 61° SE 14:35:30 10° ENE visible
01 Aug 6.0 06:04:30 26° SW 06:38:37 70° SE 15:00:11 10° ENE visible
